Location: Unspecified
(48.8656°N, 0.0000°E)
Time: 18:57:55
(UTC+00:00)

Vanguard 1 Rocket - Pass Details

Date: 27 June 2019
Orbit: 651 x 4225 km, 34.3° (Epoch: 14 July)

Event Time Altitude Azimuth Distance (km) Brightness Sun altitude
Rises 16:16:28 0° 237° (WSW) 8,253 13.1 34.7°
Reaches altitude 10° 16:23:07 10° 232° (SW) 6,901 12.8 33.6°
Maximum altitude 16:41:29 41° 172° (S) 3,432 10.6 30.6°
Drops below altitude 10° 16:52:00 10° 108° (ESE) 4,054 10.3 28.8°
Sets 16:54:46 0° 100° (E) 4,681 10.5 28.4°
